Wind_Speed
29 28 30 33 36 36 47 24 12 7 9 7 12 10 7 12 12 13 13 14 12 8 6 7 7 8 10 11 12 9 10 11 12 14 14 14 16 18 18 20 20 20 20
23 28 29 32 33 51 48 41 6 12 14 7 10 1 7 9 15 15 15 12 9 8 6 5 7 8 9 9 8 9 10 11 12 15 15 15 15 16 18 19 19 20 21
25 29 30 24 33 39 33 12 16 15 18 10 10 3 10 5 15 16 19 16 12 8 6 6 8 7 8 7 7 8 9 11 13 16 17 17 16 15 15 17 19 18 19
25 27 26 23 29 22 22 23 19 18 15 9 7 7 4 6 12 19 13 14 7 8 7 7 9 6 6 5 7 8 11 12 13 15 16 17 18 18 17 17 20 20 18
24 26 24 21 28 17 20 21 23 22 15 9 4 6 7 9 8 8 6 4 5 6 6 6 6 6 7 7 8 9 10 10 12 12 13 14 14 14 15 16 17 18 16
25 26 20 20 25 17 18 19 22 24 20 10 3 2 2 1 5 4 1 2 3 5 4 5 6 5 5 6 7 7 9 11 10 10 10 10 10 11 12 14 17 17 17
20 20 17 22 26 14 16 16 18 20 18 12 3 6 3 6 4 4 2 2 2 3 4 3 4 4 3 3 4 7 7 7 6 4 5 7 8 9 10 13 14 16 13
17 17 15 20 23 12 14 13 16 21 18 15 6 7 9 5 4 4 2 1 2 4 5 5 4 3 1 2 4 5 4 5 3 3 3 3 3 5 7 8 12 13 13
15 16 16 23 26 18 15 14 16 20 21 23 11 9 8 5 4 3 4 3 3 3 5 5 4 3 1 3 3 4 5 4 3 4 6 5 3 3 6 5 8 10 8
15 16 20 25 26 25 25 23 18 20 21 19 11 9 11 7 4 3 4 4 3 4 5 6 4 4 3 3 1 2 6 11 12 10 9 9 9 7 7 8 5 3 5
17 19 21 28 29 30 35 29 15 18 17 9 11 9 8 4 4 4 6 6 5 5 6 7 5 6 5 3 3 5 6 5 6 6 8 8 8 8 8 8 7 7 6
21 24 26 30 33 35 40 46 9 15 10 4 9 8 8 5 3 3 2 5 6 6 5 7 8 8 7 4 5 7 8 5 2 2 4 7 8 9 11 11 11 11 11
24 26 29 29 31 34 39 35 10 10 4 6 9 8 7 5 4 2 2 7 8 8 8 7 7 7 7 7 7 7 8 8 8 7 8 9 11 12 13 13 13 12 12
24 27 29 30 31 33 28 24 12 9 2 3 6 6 4 4 3 2 3 6 8 10 10 9 8 8 8 8 10 10 12 12 13 13 14 15 16 16 15 12 12 13 13
23 29 30 31 32 32 21 17 11 11 7 7 6 4 5 6 5 4 4 7 9 10 12 12 10 9 9 10 10 11 12 14 15 16 17 17 16 14 12 15 16 17 17
29 32 30 28 29 26 20 21 18 18 14 11 9 10 8 7 8 9 7 4 8 11 12 13 11 11 12 12 12 12 13 14 14 14 14 13 12 13 17 18 17 16 17
30 29 24 26 26 24 21 24 20 19 16 12 13 10 9 10 11 13 15 11 9 11 11 10 9 11 13 13 14 13 13 13 13 13 14 15 16 17 16 17 18 20 21
23 22 23 24 25 22 20 21 21 25 23 23 21 15 11 12 11 13 13 12 11 12 9 5 6 7 9 10 11 12 13 14 15 17 18 17 17 17 18 19 21 23 25
20 22 26 25 22 21 19 22 22 10 14 17 15 18 18 15 13 13 7 6 10 13 6 7 8 9 10 12 13 15 17 17 17 17 17 18 19 20 21 23 25 26 28
22 22 27 26 21 19 18 20 19 8 9 14 15 22 21 19 17 14 9 7 6 7 11 11 12 14 14 15 18 18 19 19 20 21 22 24 24 25 26 27 29 31 32
22 24 26 27 22 21 17 17 15 12 21 20 11 8 21 20 12 10 8 11 11 13 13 15 16 17 18 19 21 23 24 24 26 27 28 28 28 28 30 32 32 34 35
22 24 25 26 23 23 20 15 12 11 5 8 6 4 5 8 10 11 13 16 15 14 15 15 16 20 23 23 23 24 25 26 27 28 27 27 29 31 32 34 35 35 36
25 26 24 23 22 21 20 14 10 11 12 8 13 15 11 13 16 15 17 14 15 17 18 19 21 20 19 23 25 26 28 29 30 29 28 30 31 34 35 35 36 38 40
27 25 24 21 25 25 18 15 12 11 12 13 15 15 16 15 18 18 13 16 17 19 21 22 22 23 24 27 29 31 32 33 33 32 32 34 36 36 38 38 39 40 42
27 26 23 21 26 37 21 16 15 16 17 18 20 21 21 22 23 22 22 22 23 24 26 27 27 27 29 30 31 32 34 34 34 35 36 38 40 39 39 40 42 43 42
30 30 26 29 21 23 24 20 18 19 22 22 22 22 24 24 25 25 27 28 29 29 31 29 30 30 32 33 34 35 35 35 36 36 38 40 41 41 40 41 40 38 37
Wind_Direction
338 338 332 331 332 319 323 354 261 10 360 344 337 323 179 199 209 217 210 207 219 227 237 241 277 283 275 271 275 276 276 279 279 276 270 262 255 253 260 266 268 268 268
332 331 329 339 325 333 323 304 247 357 339 355 340 181 180 203 212 221 200 205 207 211 219 252 284 286 274 267 264 276 289 288 287 287 283 274 263 256 260 264 262 264 263
325 323 337 332 335 340 8 20 23 356 347 346 352 17 208 207 180 193 202 196 198 219 235 278 299 283 263 262 278 289 292 292 289 285 281 274 271 265 263 260 258 262 259
322 327 334 331 333 349 351 360 1 354 350 340 346 11 16 190 187 186 172 181 200 226 248 276 297 283 299 306 303 304 302 297 291 286 281 273 267 264 263 258 254 258 258
319 322 328 319 330 344 344 353 357 353 345 358 309 360 25 43 187 86 103 177 212 238 256 280 292 290 295 293 294 300 297 298 299 296 285 275 268 259 252 258 263 264 253
317 319 319 313 326 327 334 351 355 355 343 335 286 289 353 289 99 101 150 170 227 244 249 286 296 283 283 291 291 296 305 315 310 305 288 282 275 266 252 251 256 259 256
315 320 315 324 322 317 330 340 344 344 334 322 293 231 278 267 204 185 161 151 215 230 239 248 243 261 236 266 314 321 324 324 325 319 301 286 271 260 253 251 251 251 260
333 338 325 339 335 314 317 319 334 334 325 312 292 236 239 235 242 215 279 317 302 253 238 218 225 213 215 320 330 345 357 15 28 10 357 319 281 269 271 275 251 247 258
334 338 326 333 338 333 311 307 318 322 321 310 270 216 212 218 219 217 273 313 294 285 245 233 221 228 289 298 316 9 24 27 45 54 36 28 20 354 318 314 254 254 252
326 330 321 324 337 333 320 297 304 314 313 306 209 198 182 191 202 221 256 278 293 280 272 258 253 258 277 285 267 101 97 87 80 73 65 54 40 29 11 15 12 302 298
327 337 332 331 334 334 326 287 287 306 305 290 200 195 169 176 192 197 230 271 305 300 298 283 274 281 291 301 233 195 162 120 88 57 29 22 15 15 7 359 343 329 317
332 333 346 336 337 335 329 332 264 311 288 286 209 177 181 188 197 211 278 264 273 288 283 289 291 292 289 278 251 223 212 207 224 304 333 335 335 333 331 327 322 313 311
327 333 348 336 332 333 334 340 286 300 317 167 166 181 191 200 190 178 253 287 277 274 276 282 287 286 284 261 238 233 229 244 257 273 288 298 305 310 310 308 306 302 302
322 330 338 333 332 323 328 324 273 245 232 209 198 174 194 223 229 248 299 293 293 272 274 277 278 278 275 265 251 253 260 265 275 284 289 297 302 307 307 308 312 310 307
316 321 330 327 327 328 322 332 330 262 248 222 234 217 205 241 234 264 286 270 285 282 267 270 271 273 271 266 260 259 261 268 276 284 290 296 303 305 305 308 306 300 296
307 319 323 321 331 333 330 321 295 293 244 245 222 239 236 246 259 252 265 285 274 274 267 262 266 266 266 272 276 276 278 279 281 281 284 289 291 293 299 302 299 298 299
302 310 313 319 328 330 319 320 304 299 267 228 244 235 245 246 254 273 271 261 266 265 268 264 274 279 274 272 274 277 281 281 281 284 287 288 293 298 299 300 300 301 301
298 298 306 320 326 323 321 320 302 289 239 239 254 241 230 239 258 269 275 258 251 239 250 268 277 285 285 283 287 286 287 289 289 290 289 291 294 294 296 297 299 299 299
298 297 301 314 323 318 324 320 299 244 187 239 241 255 247 264 221 220 220 183 210 211 242 263 270 274 276 278 280 285 290 292 293 294 292 294 296 296 297 299 301 300 299
294 295 295 304 313 320 318 321 318 294 213 220 248 263 245 245 227 216 215 225 223 231 252 264 267 266 266 273 275 277 280 281 280 283 286 290 292 294 296 296 296 297 297
290 286 292 297 302 305 301 308 316 321 221 215 252 310 222 224 218 237 244 257 257 261 259 264 271 275 274 274 277 280 281 279 282 287 290 293 296 295 296 298 299 298 296
283 281 283 287 287 287 288 295 311 319 282 234 231 235 230 217 228 238 255 250 256 267 276 280 287 288 284 284 284 286 287 287 287 286 287 290 291 292 294 296 297 297 296
272 274 277 280 280 279 270 278 300 302 309 322 254 253 254 263 247 262 256 247 264 269 275 279 282 285 286 281 284 285 285 287 288 288 290 290 290 293 297 298 299 298 297
269 270 276 277 287 265 253 264 273 281 288 292 293 286 283 275 267 266 244 270 272 276 278 280 283 286 290 291 290 291 291 292 293 293 293 292 293 297 298 297 297 298 299
271 274 275 273 272 263 235 238 258 269 279 277 270 269 270 267 269 273 274 277 281 281 281 283 286 288 290 291 292 292 292 294 295 295 294 293 294 297 297 296 298 301 300
270 273 284 277 270 265 246 241 255 266 271 272 271 266 263 264 269 274 277 278 279 281 282 285 287 289 291 292 291 292 292 293 293 292 292 292 293 294 297 298 300 300 300
Height
5924 5923 5917 5912 5905 5887 5887 5897 5895 5881 5881 5879 5877 5873 5873 5872 5871 5876 5877 5879 5882 5883 5884 5884 5885 5885 5885 5886 5887 5888 5888 5888 5887 5887 5887 5887 5887 5887 5888 5887 5887 5888 5888
5924 5921 5916 5912 5894 5895 5876 5873 5882 5883 5883 5875 5875 5872 5871 5869 5872 5874 5877 5879 5880 5881 5882 5883 5883 5883 5883 5883 5884 5884 5885 5884 5883 5882 5882 5882 5882 5882 5882 5882 5882 5882 5882
5923 5920 5916 5912 5905 5899 5887 5875 5879 5882 5879 5874 5874 5871 5871 5869 5870 5873 5874 5876 5878 5880 5881 5880 5880 5880 5881 5881 5881 5881 5882 5881 5880 5878 5877 5877 5877 5878 5878 5878 5878 5878 5878
5920 5917 5913 5908 5903 5901 5897 5891 5887 5882 5879 5876 5874 5871 5870 5869 5870 5870 5872 5874 5877 5878 5879 5879 5878 5878 5878 5878 5878 5878 5878 5877 5876 5874 5873 5872 5872 5873 5873 5874 5873 5873 5874
5916 5914 5910 5907 5900 5897 5894 5890 5887 5884 5880 5877 5876 5872 5869 5869 5869 5870 5871 5875 5876 5877 5877 5877 5877 5877 5876 5877 5877 5876 5876 5874 5872 5870 5869 5868 5868 5868 5869 5869 5869 5869 5869
5915 5910 5907 5903 5897 5892 5891 5887 5885 5881 5879 5878 5876 5874 5871 5871 5870 5872 5873 5873 5874 5875 5875 5875 5875 5875 5875 5876 5876 5874 5873 5871 5869 5867 5865 5865 5864 5865 5865 5865 5865 5865 5866
5912 5909 5904 5900 5896 5892 5888 5885 5882 5879 5878 5877 5874 5874 5872 5870 5870 5870 5872 5872 5872 5873 5874 5874 5875 5875 5875 5875 5874 5872 5870 5869 5866 5865 5864 5863 5862 5863 5863 5862 5862 5862 5861
5909 5906 5902 5897 5893 5888 5886 5884 5881 5878 5875 5874 5871 5871 5871 5870 5868 5868 5870 5871 5871 5872 5873 5873 5874 5874 5873 5872 5872 5870 5869 5867 5865 5864 5863 5862 5862 5861 5861 5860 5860 5860 5860
5908 5903 5899 5895 5892 5888 5884 5882 5879 5876 5872 5868 5866 5869 5869 5870 5871 5870 5871 5870 5870 5871 5872 5872 5872 5872 5871 5871 5870 5869 5868 5866 5865 5864 5864 5863 5862 5861 5859 5858 5858 5858 5858
5904 5902 5898 5894 5890 5887 5884 5882 5879 5874 5865 5862 5863 5865 5866 5868 5869 5869 5870 5871 5870 5871 5871 5871 5871 5871 5870 5869 5869 5869 5869 5867 5866 5865 5865 5864 5863 5862 5860 5859 5858 5858 5857
5902 5900 5897 5893 5887 5884 5882 5878 5874 5871 5863 5861 5861 5863 5865 5868 5868 5869 5870 5871 5871 5871 5870 5871 5870 5870 5869 5867 5867 5868 5869 5868 5867 5867 5867 5865 5865 5863 5862 5861 5859 5858 5857
5902 5898 5896 5891 5885 5879 5876 5870 5868 5870 5864 5862 5862 5861 5863 5865 5866 5868 5868 5869 5869 5869 5868 5869 5869 5869 5868 5867 5867 5867 5868 5868 5867 5866 5866 5865 5864 5863 5862 5861 5859 5857 5856
5898 5896 5895 5890 5883 5878 5872 5866 5868 5870 5866 5860 5860 5862 5862 5864 5863 5863 5864 5867 5867 5867 5867 5867 5867 5866 5866 5866 5866 5866 5867 5867 5866 5865 5865 5864 5863 5862 5860 5859 5857 5856 5854
5893 5891 5891 5886 5881 5875 5871 5867 5867 5868 5865 5863 5862 5861 5861 5863 5861 5862 5863 5864 5865 5865 5866 5865 5865 5865 5865 5865 5864 5864 5865 5864 5864 5863 5862 5862 5861 5859 5858 5857 5855 5854 5853
5890 5886 5886 5882 5877 5871 5868 5865 5864 5866 5863 5862 5860 5859 5859 5860 5859 5860 5860 5862 5862 5863 5863 5864 5864 5864 5863 5863 5862 5861 5861 5860 5860 5859 5859 5858 5857 5856 5856 5855 5853 5851 5849
5886 5883 5880 5878 5873 5867 5864 5861 5860 5859 5858 5859 5858 5858 5859 5858 5859 5859 5860 5858 5860 5861 5861 5861 5861 5861 5861 5861 5860 5859 5857 5856 5855 5855 5854 5853 5853 5852 5852 5851 5849 5847 5845
5882 5879 5877 5873 5870 5865 5860 5857 5852 5851 5852 5852 5855 5855 5854 5855 5857 5858 5857 5856 5857 5859 5859 5858 5858 5859 5859 5858 5857 5856 5855 5854 5853 5852 5851 5850 5849 5848 5847 5846 5844 5842 5840
5875 5873 5870 5869 5865 5860 5857 5851 5846 5841 5843 5846 5849 5851 5851 5852 5854 5855 5854 5852 5854 5856 5856 5856 5855 5855 5856 5855 5855 5854 5853 5852 5851 5849 5848 5846 5845 5844 5842 5840 5838 5836 5834
5870 5867 5864 5863 5861 5856 5853 5848 5842 5833 5839 5844 5847 5849 5850 5850 5850 5851 5851 5849 5849 5851 5853 5853 5852 5853 5853 5853 5852 5851 5850 5849 5847 5846 5845 5843 5841 5839 5837 5834 5831 5829 5826
5865 5862 5858 5858 5856 5852 5849 5847 5842 5837 5840 5843 5845 5843 5843 5846 5848 5848 5849 5850 5848 5848 5849 5849 5849 5849 5848 5847 5847 5846 5845 5844 5841 5840 5838 5837 5834 5831 5829 5826 5824 5821 5818
5859 5857 5855 5851 5850 5848 5846 5844 5842 5838 5837 5840 5840 5837 5836 5842 5845 5845 5846 5847 5846 5846 5845 5845 5844 5844 5843 5842 5841 5840 5839 5837 5836 5834 5832 5829 5828 5824 5821 5818 5816 5813 5810
5853 5851 5850 5846 5844 5841 5841 5840 5840 5835 5836 5837 5837 5838 5840 5841 5842 5842 5843 5843 5843 5841 5840 5839 5838 5838 5837 5836 5835 5834 5833 5831 5829 5826 5824 5822 5819 5816 5813 5810 5806 5803 5799
5845 5844 5843 5841 5837 5836 5836 5837 5836 5834 5834 5834 5835 5836 5837 5838 5837 5838 5839 5838 5838 5837 5835 5834 5833 5832 5831 5829 5828 5827 5826 5823 5822 5819 5815 5813 5810 5806 5803 5800 5796 5792 5788
5837 5837 5836 5835 5832 5832 5831 5832 5831 5832 5831 5831 5832 5833 5833 5833 5834 5832 5832 5833 5832 5832 5831 5829 5828 5826 5824 5823 5821 5819 5817 5815 5813 5810 5807 5803 5801 5797 5793 5789 5785 5781 5777
5830 5830 5830 5829 5827 5824 5825 5825 5826 5827 5828 5828 5829 5829 5829 5829 5828 5828 5827 5826 5826 5825 5824 5822 5821 5819 5817 5815 5813 5811 5809 5806 5804 5800 5797 5794 5790 5787 5783 5779 5775 5771 5767
5824 5823 5822 5822 5820 5818 5819 5820 5821 5821 5822 5822 5823 5824 5824 5823 5821 5820 5820 5818 5818 5817 5816 5814 5813 5810 5808 5806 5804 5802 5800 5796 5793 5790 5787 5783 5779 5775 5772 5768 5764 5761 5757